[[{"header":{"parameterUnit":"m.s-1","parameterCategory":1,"la1":30.2991,"la2":30.254,"lo1":-89.0895,"lo2":-89.0444,"dy":0.0017,"dx":0.0017,"nx":28,"ny":28,"refTime":"2025-01-29T03:00:00:Z","depth":0,"parameterNumber":2,"parameterNumberName":"U-component_of_WINDS"},"data":[0,0,0,0,0,0,0,0,0,0,0,0,0,0,0,0,0,0,0,0,0,0,0,0,0,0,0,0,0,0,0,0,0,0,0,0,0,0,0,0,0,0,0,0,0,0,0,0,0,0,0,0,0,0,0,0,0,0,0.62,0.62,0,0.6234,0.6235,0.6235,0.6226,0.6226,0.6225,0.6224,0.6259,0.6261,0.6262,0,0,0,0,0,0,0,0,0,0,0,0,0,0.6126,0.6127,0.62,0.62,0.6201,0.6234,0.6235,0.6235,0.6226,0.6226,0.6225,0.6224,0.6259,0.626,0.6262,0,0,0,0,0,0,0,0,0,0,0,0,0,0.6159,0.6127,0.62,0.62,0.6201,0.6234,0.6235,0.6235,0.6227,0.6226,0.6225,0.6224,0.6258,0.626,0.6263,0.6297,0,0,0.627,0.6271,0,0,0,0,0,0,0,0,0.6157,0.6161,0.62,0.62,0.6201,0.6225,0.6221,0.6256,0.6227,0.6217,0.6224,0.6223,0.6249,0.6252,0.626,0.6299,0.63,0.627,0.6271,0.6272,0.6273,0,0,0,0,0,0,0,0.6155,0.616,0.6213,0.62,0.6201,0.6199,0.6202,0.6228,0.6238,0.6218,0.6217,0.6221,0.6249,0.6258,0.6261,0.6301,0.627,0.6272,0.6273,0.6274,0.6371,0.6372,0,0,0,0,0,0,0.6152,0.6158,0.6212,0.6214,0.6176,0.6201,0.6205,0.6218,0.6238,0.624,0.6222,0.6221,0.6255,0.6258,0.6262,0.6305,0.6272,0.6274,0.6276,0.637,0.6371,0.6372,0,0,0,0,0,0,0.615,0.6157,0.6211,0.6186,0.6193,0.6203,0.6218,0.6219,0.6229,0.6241,0.6243,0.623,0.6254,0.6259,0.6289,0.6306,0.6276,0.6278,0.6368,0.637,0.6372,0.639,0,0,0,0,0,0,0.6148,0.6156,0.617,0.6187,0.6194,0.6237,0.6219,0.6221,0.6233,0.6232,0.6249,0.6251,0.6254,0.6286,0.6291,0.6309,0.6279,0.6367,0.6369,0.6371,0.6388,0.6392,0.6396,0,0,0,0,0,0.6146,0.6173,0.617,0.6177,0.6211,0.6238,0.6242,0.6245,0.6234,0.6248,0.6256,0.625,0.6303,0.6289,0.6295,0.6313,0.6366,0.6368,0.6371,0.6386,0.6391,0.6396,0,0,0,0,0,0,0.6157,0.6175,0.6172,0.6206,0.6221,0.6237,0.6254,0.6251,0.6268,0.6266,0.6269,0.6273,0.6303,0.6311,0.6295,0.6348,0.6333,0.6337,0.6342,0.6347,0.6351,0.6349,0.6281,0,0,0,0,0,0.6164,0.6185,0.6199,0.6227,0.6235,0.6243,0.6255,0.6256,0.6271,0.6277,0.6287,0.6302,0.6322,0.6335,0.6354,0.6389,0.6393,0.6405,0.6409,0.6412,0.6415,0.6435,0.6441,0.6381,0.6381,0.6381,0,0,0.6178,0.619,0.6203,0.623,0.6241,0.6263,0.6248,0.6271,0.6287,0.628,0.631,0.6318,0.6334,0.6367,0.6382,0.6375,0.6433,0.6415,0.6418,0.642,0.6439,0.6444,0.6449,0.6383,0.6382,0.6382,0,0,0.6214,0.6225,0.625,0.6262,0.628,0.6285,0.6291,0.6308,0.6313,0.6342,0.6338,0.6357,0.6391,0.6404,0.6414,0.6456,0.6451,0.6462,0.6482,0.6502,0.6507,0.6511,0.6526,0.6532,0.6465,0.6465,0.6465,0,0.6228,0.626,0.6263,0.6287,0.6299,0.6295,0.6321,0.6332,0.6355,0.6363,0.6355,0.6398,0.6409,0.6445,0.6456,0.6464,0.6472,0.646,0.6506,0.651,0.6514,0.6529,0.6534,0.6467,0.6466,0.6466,0.6466,0,0.6278,0.63,0.6318,0.6341,0.6356,0.638,0.6387,0.6401,0.6401,0.6408,0.6438,0.6451,0.6473,0.6482,0.6481,0.6518,0.6513,0.6505,0.6489,0.6521,0.6535,0.654,0.6468,0.6468,0.6468,0.6467,0,0,0.6322,0.6347,0.6353,0.6364,0.6384,0.6401,0.6425,0.6447,0.646,0.6476,0.6497,0.6526,0.6519,0.6532,0.6533,0.655,0.6583,0.654,0.6541,0.6548,0.6625,0.6631,0.6637,0.658,0.6581,0.6582,0.6623,0,0.636,0.6403,0.6407,0.6446,0.6467,0.6464,0.6485,0.65,0.6506,0.6525,0.6533,0.6554,0.6543,0.655,0.6567,0.6575,0.6598,0.6572,0.66,0.6601,0.6596,0.6644,0.6651,0.6689,0.6629,0.663,0.663,0,0.641,0.6428,0.6469,0.6487,0.6496,0.6515,0.6536,0.6554,0.6571,0.6574,0.6589,0.6588,0.6613,0.6597,0.6632,0.6614,0.6626,0.6632,0.6633,0.6636,0.6618,0.6649,0.6701,0.6707,0.6639,0.6638,0.6638,0,0.6438,0.6473,0.6503,0.6512,0.6533,0.6547,0.6556,0.6571,0.6585,0.6603,0.6612,0.6632,0.6644,0.666,0.6665,0.6652,0.67,0.6684,0.6704,0.6704,0.6715,0.6714,0.677,0.6722,0.6722,0.6721,0.6721,0,0.648,0.6506,0.6516,0.6534,0.6563,0.6567,0.6595,0.6604,0.6618,0.6638,0.6636,0.6655,0.666,0.668,0.6684,0.6713,0.6718,0.6722,0.6723,0.6722,0.6722,0.673,0.6727,0.6723,0.6723,0.6722,0.6722,0,0.6517,0.6524,0.6557,0.6574,0.6579,0.66,0.6615,0.6632,0.6639,0.6664,0.6671,0.6681,0.6704,0.6711,0.6739,0.6742,0.6776,0.6774,0.6771,0.6771,0.6791,0.6789,0.6854,0.6863,0.6809,0.6809,0.6809,0,0.6543,0.6563,0.6583,0.6596,0.6607,0.6628,0.6642,0.6647,0.6661,0.6682,0.6697,0.672,0.6739,0.6777,0.6787,0.6808,0.6807,0.6828,0.681,0.6809,0.6808,0.6807,0.6809,0.6832,0.6832,0.6833,0.6833,0,0.6589,0.6593,0.6613,0.6634,0.6651,0.6668,0.6685,0.6696,0.6703,0.672,0.6744,0.6758,0.6787,0.681,0.6832,0.6842,0.6839,0.6839,0.6845,0.6845,0.6842,0.6844,0.678,0.6837,0.6837,0.6837,0.6836,0.6836,0.6622,0.664,0.6657,0.668,0.6693,0.6709,0.6726,0.6736,0.6756,0.678,0.6782,0.6808,0.6825,0.6854,0.6865,0.6885,0.6879,0.6887,0.689,0.6892,0.6894,0.6839,0.6889,0.6889,0.6889,0.6889,0.6889,0,0.6669,0.668,0.6701,0.6724,0.6742,0.6739,0.6757,0.6772,0.6795,0.6811,0.683,0.6858,0.6881,0.6893,0.6915,0.693,0.6929,0.6935,0.6935,0.6937,0.6898,0.689,0.6936,0.6936,0.6936,0.6936,0.6936,0.6936,0.6695,0.6725,0.673,0.6767,0.6778,0.6804,0.6815,0.683,0.6842,0.6874,0.6893,0.6901,0.6916,0.6939,0.696,0.6963,0.6972,0.6979,0.6981,0.6944,0.694,0.6935,0.6928,0.6981,0.6981,0.7019,0.7019,0.702]},{"header":{"parameterUnit":"m.s-1","parameterCategory":1,"la1":30.2991,"la2":30.254,"lo1":-89.0895,"lo2":-89.0444,"dy":0.0017,"dx":0.0017,"nx":28,"ny":28,"refTime":"2025-01-29T03:00:00:Z","depth":0,"parameterNumber":3,"parameterNumberName":"V-component_of_WINDS"},"data":[0,0,0,0,0,0,0,0,0,0,0,0,0,0,0,0,0,0,0,0,0,0,0,0,0,0,0,0,0,0,0,0,0,0,0,0,0,0,0,0,0,0,0,0,0,0,0,0,0,0,0,0,0,0,0,0,0,0,-1.2593,-1.2593,0,-1.263,-1.2631,-1.2631,-1.2637,-1.2637,-1.2637,-1.2636,-1.2674,-1.2676,-1.2677,0,0,0,0,0,0,0,0,0,0,0,0,0,-1.2527,-1.2529,-1.2593,-1.2593,-1.2594,-1.263,-1.2631,-1.2631,-1.2637,-1.2637,-1.2637,-1.2636,-1.2674,-1.2675,-1.2677,0,0,0,0,0,0,0,0,0,0,0,0,0,-1.2559,-1.2529,-1.2593,-1.2601,-1.2602,-1.263,-1.2631,-1.2631,-1.2637,-1.2637,-1.2637,-1.2636,-1.2673,-1.2675,-1.2677,-1.2699,0,0,-1.2683,-1.2684,0,0,0,0,0,0,0,0,-1.2558,-1.2562,-1.26,-1.2601,-1.2602,-1.2629,-1.2621,-1.2654,-1.2638,-1.2624,-1.2636,-1.2636,-1.2659,-1.2662,-1.2671,-1.27,-1.2702,-1.2683,-1.2684,-1.2685,-1.2686,0,0,0,0,0,0,0,-1.2555,-1.256,-1.2608,-1.26,-1.2602,-1.2603,-1.2607,-1.2628,-1.2644,-1.2625,-1.2626,-1.263,-1.266,-1.2669,-1.2671,-1.2703,-1.2683,-1.2685,-1.2686,-1.2687,-1.2753,-1.2754,0,0,0,0,0,0,-1.2552,-1.2558,-1.2606,-1.2609,-1.2578,-1.2605,-1.2609,-1.2621,-1.2644,-1.2647,-1.2631,-1.263,-1.2666,-1.2669,-1.2673,-1.27,-1.2685,-1.2687,-1.2688,-1.2752,-1.2753,-1.2754,0,0,0,0,0,0,-1.255,-1.2556,-1.2605,-1.2584,-1.259,-1.2607,-1.2619,-1.2622,-1.263,-1.2648,-1.2651,-1.2636,-1.2665,-1.267,-1.2692,-1.2701,-1.2688,-1.269,-1.2752,-1.2753,-1.2753,-1.2754,0,0,0,0,0,0,-1.2548,-1.2555,-1.2563,-1.2584,-1.2591,-1.2624,-1.262,-1.2623,-1.2634,-1.2634,-1.2654,-1.2657,-1.2665,-1.2689,-1.2694,-1.2704,-1.2691,-1.2751,-1.2752,-1.2753,-1.2753,-1.2755,-1.2756,0,0,0,0,0,-1.2546,-1.2562,-1.2564,-1.2569,-1.2602,-1.2624,-1.2628,-1.2638,-1.2634,-1.2643,-1.2654,-1.2656,-1.27,-1.2692,-1.2697,-1.2707,-1.275,-1.2752,-1.2753,-1.2753,-1.2754,-1.2756,0,0,0,0,0,0,-1.2541,-1.2564,-1.2567,-1.259,-1.2605,-1.2625,-1.2636,-1.2639,-1.2656,-1.2655,-1.2666,-1.2671,-1.2693,-1.2702,-1.2693,-1.273,-1.2725,-1.2727,-1.2722,-1.2724,-1.2726,-1.2723,-1.2693,0,0,0,0,0,-1.2543,-1.2559,-1.2579,-1.2597,-1.2605,-1.2619,-1.2629,-1.2635,-1.2651,-1.2658,-1.2671,-1.2686,-1.2704,-1.2715,-1.2731,-1.2755,-1.276,-1.2765,-1.2766,-1.2767,-1.2769,-1.2783,-1.2785,-1.2758,-1.2758,-1.2758,0,0,-1.2547,-1.2561,-1.2571,-1.2597,-1.2609,-1.2626,-1.2624,-1.2642,-1.2655,-1.266,-1.2682,-1.2693,-1.2711,-1.2734,-1.2745,-1.2743,-1.2778,-1.2769,-1.277,-1.2771,-1.2784,-1.2787,-1.2789,-1.2759,-1.2759,-1.2759,0,0,-1.2562,-1.2574,-1.2591,-1.2604,-1.2623,-1.2633,-1.2637,-1.2657,-1.2664,-1.2687,-1.2692,-1.2707,-1.2736,-1.2749,-1.276,-1.2781,-1.2784,-1.2786,-1.2793,-1.2807,-1.2809,-1.2811,-1.2819,-1.2821,-1.2788,-1.2788,-1.2788,0,-1.2564,-1.2589,-1.26,-1.2617,-1.2629,-1.2636,-1.2653,-1.2665,-1.2688,-1.2696,-1.2694,-1.2731,-1.2744,-1.2771,-1.2776,-1.2784,-1.2789,-1.2784,-1.2808,-1.281,-1.2812,-1.2819,-1.2822,-1.2788,-1.2788,-1.2788,-1.2788,0,-1.2591,-1.2608,-1.262,-1.2643,-1.2656,-1.2673,-1.2687,-1.2698,-1.2704,-1.2714,-1.2737,-1.2753,-1.2773,-1.278,-1.2785,-1.2808,-1.2806,-1.2806,-1.2801,-1.2814,-1.2822,-1.2825,-1.2789,-1.2789,-1.2789,-1.2789,0,0,-1.2603,-1.2632,-1.2636,-1.2647,-1.2669,-1.2683,-1.2702,-1.2722,-1.2732,-1.2748,-1.2764,-1.2789,-1.2789,-1.2801,-1.2808,-1.282,-1.2836,-1.2818,-1.2819,-1.2821,-1.2862,-1.2862,-1.2865,-1.2839,-1.2839,-1.284,-1.2861,0,-1.262,-1.2653,-1.2663,-1.269,-1.2707,-1.2715,-1.2731,-1.2746,-1.2756,-1.2772,-1.2784,-1.2801,-1.28,-1.2808,-1.282,-1.2832,-1.2845,-1.2831,-1.2853,-1.2854,-1.2848,-1.2869,-1.2869,-1.2888,-1.2864,-1.2864,-1.2865,0,-1.2645,-1.2662,-1.2691,-1.2712,-1.2719,-1.2733,-1.2753,-1.2768,-1.2786,-1.2793,-1.2807,-1.2814,-1.2833,-1.2828,-1.2855,-1.2845,-1.2856,-1.2863,-1.2864,-1.2866,-1.286,-1.2872,-1.2894,-1.2897,-1.2869,-1.2869,-1.2869,0,-1.265,-1.2681,-1.2702,-1.2712,-1.2737,-1.2746,-1.2757,-1.2775,-1.2787,-1.2805,-1.2812,-1.2832,-1.2843,-1.2858,-1.287,-1.2865,-1.2896,-1.2892,-1.2903,-1.2902,-1.2908,-1.2908,-1.2933,-1.2915,-1.2915,-1.2915,-1.2915,0,-1.2669,-1.2686,-1.2705,-1.2718,-1.2738,-1.2751,-1.277,-1.2782,-1.2798,-1.2814,-1.2821,-1.2836,-1.2851,-1.2867,-1.2877,-1.2898,-1.2903,-1.2909,-1.2912,-1.2908,-1.2908,-1.2915,-1.2914,-1.2916,-1.2916,-1.2916,-1.2916,0,-1.2678,-1.2692,-1.2716,-1.2738,-1.2744,-1.2758,-1.2777,-1.279,-1.2801,-1.2821,-1.2826,-1.2844,-1.2864,-1.2877,-1.2903,-1.291,-1.2933,-1.2935,-1.2927,-1.2928,-1.2938,-1.2937,-1.2968,-1.2973,-1.2953,-1.2953,-1.2953,0,-1.2688,-1.2702,-1.2726,-1.2737,-1.2748,-1.2766,-1.2778,-1.2792,-1.2804,-1.2827,-1.2837,-1.2858,-1.2876,-1.2908,-1.2923,-1.2943,-1.2945,-1.2955,-1.2948,-1.2945,-1.2945,-1.2944,-1.2946,-1.2955,-1.2956,-1.2956,-1.2956,0,-1.2705,-1.2712,-1.2729,-1.275,-1.2764,-1.2781,-1.2798,-1.2806,-1.2823,-1.2837,-1.2858,-1.2871,-1.2898,-1.2918,-1.294,-1.2952,-1.2957,-1.2958,-1.2962,-1.2958,-1.2953,-1.2956,-1.2929,-1.2957,-1.2957,-1.2957,-1.2957,-1.2957,-1.2715,-1.2728,-1.2747,-1.2767,-1.2781,-1.2797,-1.281,-1.2824,-1.2841,-1.2864,-1.2871,-1.2893,-1.2912,-1.2942,-1.2954,-1.2971,-1.297,-1.2975,-1.2977,-1.2978,-1.2978,-1.2951,-1.2975,-1.2975,-1.2975,-1.2975,-1.2975,0,-1.2733,-1.2746,-1.2764,-1.2787,-1.2803,-1.2807,-1.2826,-1.2838,-1.2858,-1.2875,-1.2892,-1.2917,-1.2937,-1.2954,-1.2976,-1.2986,-1.2989,-1.2991,-1.2991,-1.2993,-1.2977,-1.2972,-1.2989,-1.2989,-1.2989,-1.2989,-1.2989,-1.2989,-1.2744,-1.2766,-1.2774,-1.2804,-1.2817,-1.2838,-1.2849,-1.2864,-1.2878,-1.2905,-1.2922,-1.2933,-1.2951,-1.2973,-1.2992,-1.2997,-1.3004,-1.3006,-1.3011,-1.2996,-1.2994,-1.2993,-1.2988,-1.3008,-1.3008,-1.3026,-1.3026,-1.3026]}]]